| time (UTC) | temp F | wind direction | speed MPH | gust MPH | rain 1hr in | rain 24hr in | rain mn in | humidity % | barometer mb |
| 20260831104509 | 64 | 194 | 0.0 | 0.0 | 0.00 | 0.00 | 0.00 | 78 | 1005.4 |
| 20260831103004 | 65 | 225 | 0.0 | 0.0 | 0.00 | 0.00 | 0.00 | 75 | 1005.5 |
| 20260831101503 | 65 | 284 | 0.0 | 0.0 | 0.00 | 0.00 | 0.00 | 78 | 1005.4 |
| 20260831100109 | 63 | 360 | 0.0 | 0.0 | 0.00 | 0.00 | 0.00 | 79 | 1005.4 |
| 20260831094557 | 63 | 230 | 0.0 | 0.0 | 0.00 | 0.00 | 0.00 | 79 | 1005.3 |
| 20260831093058 | 63 | 207 | 0.0 | 0.0 | 0.00 | 0.00 | 0.00 | 78 | 1005.2 |
| 20260831091554 | 62 | 214 | 0.0 | 0.0 | 0.00 | 0.00 | 0.00 | 81 | 1005.1 |
| 20260831084559 | 61 | 360 | 0.0 | 0.0 | 0.00 | 0.00 | 0.00 | 81 | 1005.2 |
| 20260831083052 | 61 | 211 | 0.0 | 0.0 | 0.00 | 0.00 | 0.00 | 81 | 1005.2 |
| 20260831081551 | 61 | 225 | 0.0 | 0.0 | 0.00 | 0.00 | 0.00 | 82 | 1005.1 |
| 20260831080052 | 61 | 360 | 0.0 | 0.0 | 0.00 | 0.00 | 0.00 | 83 | 1005.1 |
| 20260831074552 | 60 | 260 | 0.0 | 0.0 | 0.00 | 0.00 | 0.00 | 83 | 1005.1 |
| 20260831073050 | 60 | 234 | 0.0 | 0.0 | 0.00 | 0.00 | 0.00 | 84 | 1005.0 |
| 20260831071549 | 60 | 188 | 0.0 | 0.0 | 0.00 | 0.00 | 0.00 | 85 | 1004.9 |
| 20260831070055 | 60 | 198 | 0.0 | 0.0 | 0.00 | 0.00 | 0.00 | 85 | 1004.9 |
| 20260831064547 | 60 | 203 | 0.0 | 0.0 | 0.00 | 0.00 | 0.00 | 85 | 1005.0 |
| 20260831063050 | 60 | 257 | 0.0 | 0.0 | 0.00 | 0.00 | 0.00 | 85 | 1004.9 |
| 20260831061544 | 59 | 198 | 0.0 | 0.0 | 0.00 | 0.00 | 0.00 | 85 | 1004.7 |
| 20260831060042 | 59 | 257 | 0.0 | 0.0 | 0.00 | 0.00 | 0.00 | 85 | 1004.7 |
| 20260831054544 | 59 | 229 | 0.0 | 0.0 | 0.00 | 0.00 | 0.00 | 86 | 1004.6 |
| 20260831053051 | 59 | 190 | 0.0 | 0.0 | 0.00 | 0.00 | 0.00 | 87 | 1004.5 |
| 20260831051543 | 59 | 225 | 0.0 | 0.0 | 0.00 | 0.00 | 0.00 | 87 | 1004.4 |
| 20260831050044 | 59 | 360 | 0.0 | 0.0 | 0.00 | 0.00 | 0.00 | 88 | 1004.4 |
| 20260831044539 | 59 | 184 | 0.0 | 0.0 | 0.00 | 0.00 | 0.00 | 88 | 1004.4 |
| 20260831043041 | 59 | 202 | 0.0 | 0.0 | 0.00 | 0.00 | 0.00 | 88 | 1004.4 |
| 20260831041539 | 59 | 236 | 0.0 | 0.0 | 0.00 | 0.00 | 0.00 | 87 | 1004.3 |
| 20260831040038 | 59 | 206 | 0.0 | 0.0 | 0.00 | 0.00 | 0.00 | 87 | 1004.3 |
| 20260831034541 | 59 | 234 | 0.0 | 0.0 | 0.00 | 0.00 | 0.00 | 87 | 1004.3 |
| 20260831033057 | 59 | 223 | 0.0 | 0.0 | 0.00 | 0.00 | 0.00 | 87 | 1004.3 |
| 20260831031536 | 59 | 360 | 0.0 | 0.0 | 0.00 | 0.00 | 0.00 | 87 | 1004.2 |
| 20260831030036 | 59 | 192 | 0.0 | 0.0 | 0.00 | 0.00 | 0.00 | 88 | 1004.2 |
| 20260831024538 | 59 | 194 | 0.0 | 0.0 | 0.00 | 0.00 | 0.00 | 88 | 1004.0 |
| 20260831023035 | 59 | 256 | 0.0 | 0.0 | 0.00 | 0.00 | 0.00 | 88 | 1004.1 |
| 20260831021535 | 59 | 223 | 0.0 | 0.0 | 0.00 | 0.00 | 0.00 | 87 | 1004.1 |
| 20260831020040 | 59 | 230 | 0.0 | 0.0 | 0.00 | 0.00 | 0.00 | 87 | 1004.1 |
| 20260831014535 | 59 | 227 | 0.0 | 0.0 | 0.00 | 0.00 | 0.00 | 87 | 1004.2 |
| 20260831013034 | 59 | 219 | 0.0 | 0.0 | 0.00 | 0.00 | 0.00 | 89 | 1004.0 |
| 20260831011542 | 59 | 360 | 0.0 | 0.0 | 0.00 | 0.00 | 0.00 | 89 | 1004.1 |
| 20260831010033 | 59 | 248 | 0.0 | 0.0 | 0.00 | 0.00 | 0.00 | 89 | 1004.0 |
| 20260831004534 | 59 | 248 | 0.0 | 0.0 | 0.00 | 0.00 | 0.00 | 89 | 1004.1 |
| 20260831003036 | 59 | 237 | 0.0 | 0.0 | 0.00 | 0.00 | 0.00 | 90 | 1004.3 |
| 20260831001532 | 59 | 229 | 0.0 | 0.0 | 0.00 | 0.00 | 0.00 | 90 | 1004.2 |
| 20260831000037 | 59 | 223 | 0.0 | 0.0 | 0.00 | 0.00 | 0.00 | 90 | 1004.1 |
| 20260830234537 | 59 | 200 | 0.0 | 0.0 | 0.00 | 0.00 | 0.00 | 90 | 1004.1 |
| 20260830233030 | 59 | 169 | 0.0 | 0.0 | 0.00 | 0.00 | 0.00 | 90 | 1004.1 |
| 20260830231529 | 59 | 208 | 0.0 | 0.0 | 0.00 | 0.00 | 0.00 | 91 | 1003.9 |
| 20260830230033 | 59 | 236 | 0.0 | 0.0 | 0.00 | 0.00 | 0.00 | 91 | 1003.9 |
| 20260830224531 | 59 | 360 | 0.0 | 0.0 | 0.00 | 0.00 | 0.00 | 91 | 1003.8 |
| 20260830223029 | 59 | 226 | 0.0 | 0.0 | 0.00 | 0.00 | 0.00 | 92 | 1003.8 |
| 20260830221537 | 59 | 215 | 0.0 | 0.0 | 0.00 | 0.00 | 0.00 | 92 | 1003.8 |
| 20260830220027 | 59 | 213 | 0.0 | 0.0 | 0.00 | 0.00 | 0.00 | 92 | 1003.8 |
| 20260830214526 | 59 | 186 | 0.0 | 0.0 | 0.00 | 0.00 | 0.17 | 92 | 1003.8 |
| 20260830213032 | 59 | 360 | 0.0 | 0.0 | 0.00 | 0.00 | 0.17 | 92 | 1003.8 |
| 20260830211525 | 59 | 247 | 0.0 | 0.0 | 0.00 | 0.00 | 0.17 | 92 | 1003.8 |
| 20260830210024 | 59 | 157 | 0.0 | 0.0 | 0.00 | 0.00 | 0.17 | 92 | 1003.7 |
| 20260830204525 | 59 | 202 | 0.0 | 0.0 | 0.00 | 0.00 | 0.17 | 92 | 1003.7 |
| 20260830203023 | 59 | 195 | 0.0 | 0.0 | 0.00 | 0.00 | 0.17 | 93 | 1003.6 |
| 20260830201521 | 59 | 209 | 0.0 | 0.0 | 0.00 | 0.00 | 0.17 | 93 | 1003.5 |
| 20260830200021 | 60 | 260 | 0.0 | 0.0 | 0.00 | 0.00 | 0.17 | 93 | 1003.4 |
| 20260830194520 | 60 | 242 | 0.0 | 0.0 | 0.00 | 0.00 | 0.17 | 93 | 1003.2 |
| 20260830193019 | 60 | 222 | 0.0 | 0.0 | 0.00 | 0.00 | 0.17 | 93 | 1003.1 |
| 20260830191519 | 60 | 232 | 0.0 | 0.0 | 0.00 | 0.00 | 0.17 | 93 | 1002.9 |
| 20260830190023 | 60 | 360 | 0.0 | 0.0 | 0.00 | 0.00 | 0.17 | 93 | 1002.9 |
| 20260830184519 | 60 | 241 | 0.0 | 0.0 | 0.00 | 0.00 | 0.17 | 93 | 1002.8 |
| 20260830183019 | 60 | 188 | 0.0 | 0.0 | 0.00 | 0.00 | 0.17 | 93 | 1002.6 |
| 20260830181519 | 60 | 209 | 0.0 | 0.0 | 0.00 | 0.00 | 0.17 | 93 | 1002.5 |
| 20260830180020 | 60 | 238 | 0.0 | 0.0 | 0.00 | 0.00 | 0.17 | 93 | 1002.4 |
| 20260830174519 | 61 | 234 | 0.0 | 0.0 | 0.00 | 0.00 | 0.17 | 93 | 1002.2 |
| 20260830173019 | 61 | 248 | 0.0 | 0.0 | 0.00 | 0.00 | 0.17 | 92 | 1002.0 |
| 20260830171519 | 61 | 242 | 0.0 | 0.0 | 0.00 | 0.00 | 0.16 | 92 | 1002.0 |
| 20260830170034 | 61 | 190 | 0.0 | 0.0 | 0.00 | 0.00 | 0.15 | 92 | 1001.9 |
| 20260830164515 | 61 | 190 | 0.0 | 0.0 | 0.00 | 0.00 | 0.14 | 92 | 1001.7 |
| 20260830163014 | 62 | 190 | 0.0 | 0.0 | 0.00 | 0.00 | 0.12 | 92 | 1001.5 |
| 20260830161513 | 62 | 180 | 0.0 | 0.0 | 0.00 | 0.00 | 0.10 | 92 | 1001.5 |
| 20260830160024 | 62 | 179 | 0.0 | 0.0 | 0.00 | 0.00 | 0.10 | 92 | 1001.3 |
| 20260830154516 | 62 | 178 | 0.0 | 0.0 | 0.00 | 0.00 | 0.09 | 92 | 1001.2 |
| 20260830153015 | 62 | 178 | 0.0 | 0.0 | 0.00 | 0.00 | 0.06 | 92 | 1001.3 |
| 20260830151515 | 62 | 178 | 0.0 | 0.0 | 0.00 | 0.00 | 0.06 | 92 | 1001.3 |
| 20260830150018 | 62 | 179 | 0.0 | 0.0 | 0.00 | 0.00 | 0.05 | 92 | 1001.2 |
| 20260830144514 | 62 | 180 | 0.0 | 0.0 | 0.00 | 0.00 | 0.05 | 92 | 1001.2 |
| 20260830143013 | 62 | 180 | 0.0 | 0.0 | 0.00 | 0.00 | 0.05 | 92 | 1001.3 |
| 20260830141512 | 62 | 179 | 0.0 | 0.0 | 0.00 | 0.00 | 0.04 | 91 | 1001.2 |
| 20260830140020 | 62 | 178 | 0.0 | 0.0 | 0.00 | 0.00 | 0.04 | 91 | 1001.2 |
| 20260830134512 | 63 | 179 | 0.0 | 0.0 | 0.00 | 0.00 | 0.03 | 91 | 1001.3 |
| 20260830133023 | 63 | 179 | 0.0 | 0.0 | 0.00 | 0.00 | 0.03 | 91 | 1001.2 |
| 20260830131511 | 63 | 179 | 0.0 | 0.0 | 0.00 | 0.00 | 0.03 | 91 | 1001.2 |
| 20260830130013 | 63 | 179 | 0.0 | 0.0 | 0.00 | 0.00 | 0.02 | 91 | 1001.2 |
| 20260830124518 | 63 | 180 | 0.0 | 0.0 | 0.00 | 0.00 | 0.02 | 91 | 1001.2 |
| 20260830123011 | 63 | 179 | 0.0 | 0.0 | 0.00 | 0.00 | 0.02 | 91 | 1001.2 |
| 20260830121509 | 63 | 179 | 0.0 | 0.0 | 0.00 | 0.00 | 0.02 | 91 | 1001.3 |
| 20260830120010 | 63 | 180 | 0.0 | 0.0 | 0.00 | 0.00 | 0.02 | 91 | 1001.4 |
| 20260830114509 | 62 | 180 | 0.0 | 0.0 | 0.00 | 0.00 | 0.02 | 91 | 1001.4 |
| 20260830113009 | 62 | 180 | 0.0 | 0.0 | 0.00 | 0.00 | 0.02 | 91 | 1001.5 |
| 20260830111507 | 62 | 178 | 0.0 | 0.0 | 0.00 | 0.00 | 0.02 | 91 | 1001.6 |
| 20260830110007 | 63 | 180 | 0.0 | 0.0 | 0.00 | 0.00 | 0.02 | 91 | 1001.6 |